Home   Weather   Lingen (Ems)   Past weeks

Flag for Germany Past Weather in Lingen (Ems), Lower Saxony, Germany — Yesterday and Last 2 Weeks

Now
74 °F

Scattered clouds.


Feels Like: 77 °F
Forecast: 61 / 72 °F
Wind: 2 mph from East

Location: Meppen

Current Time: May 29, 2017 at 1:23:00 pm

Latest Report: May 29, 2017 at 12:00 pm


Visibility: 17 mi

Pressure: 29.92 "Hg

Humidity: 57%

Dew Point: 58 °F

Location of Lingen (Ems)Location

Past Weather in Lingen (Ems) — Graph

°F

Lingen (Ems) Temperature Yesterday

Maximum temperature yesterday: 81 °F (at 6:00 pm)
Minimum temperature yesterday: 61 °F (at 4:00 am)
Average temperature yesterday: 70 °F

High & Low Weather Summary for the Past Weeks

 TemperatureHumidityPressure
High85 °F (May 27, 6:00 pm)97% (May 15, 4:00 am)30.40 "Hg (May 15, 4:00 am)
Low41 °F (May 21, 6:00 am)25% (May 15, 3:00 pm)29.76 "Hg (May 19, 6:00 am)
Average63 °F65%30.13 "Hg
* Reported May 14 12:00 pm — May 29 12:00 pm, Lingen (Ems). Weather by CustomWeather, © 2017

Note: Actual official high and low records may vary slightly from our data, if they occured in-between our weather recording intervals... More about our weather records

Advertising

Lingen (Ems) Weather History for the Previous 24 Hours

Scroll right to see more
 ConditionsComfort  
Time TempWeatherWind HumidityBarometerVisibility
12:00 pm
Mon, May 29
74 °FScattered clouds.2 mph57%29.92 "Hg17 mi
10:00 am63 °FOvercast.3 mph80%29.98 "Hg17 mi
9:00 am62 °FLight rain. Overcast.2 mph79%30.02 "Hg17 mi
7:00 am57 °FOvercast.2 mph91%29.98 "Hg7 mi
6:00 am55 °FOvercast.1 mph94%29.99 "Hg6 mi
4:00 am56 °FCool.No wind94%30.02 "Hg4 mi
3:00 am56 °FCool.1 mph91%30.02 "Hg6 mi
1:00 am60 °FPassing clouds.100 mph87%30.04 "Hg6 mi
12:00 am62 °FCool.2 mph85%30.05 "Hg7 mi
10:00 pm
Sun, May 28
68 °FMild.1 mph54%30.04 "Hg12 mi
9:00 pm72 °FMild.2 mph49%30.04 "Hg11 mi
7:00 pm77 °FMild.3 mph38%30.03 "Hg10 mi
6:00 pm81 °FWarm.3 mph42%30.03 "Hg6 mi
4:00 pm80 °FWarm.3 mph43%30.05 "Hg6 mi
3:00 pm80 °FWarm.3 mph41%30.04 "Hg6 mi
2:00 pmN/APassing clouds.9 mphN/AN/A3 mi
1:00 pm76 °FMild.5 mph47%30.07 "Hg17 mi
Weather by CustomWeather, © 2017

See weather overviewHow to use our weather pages